Location: Kawakawa
(35.3830°S, 174.0670°E)
Time: 04:09:58
(UTC+13:00)

CENTAUR R/B - Pass Details

Date: 24 January 2019
Orbit: 780 x 1408 km, 63.4° (Epoch: 08 October)

Event Time Altitude Azimuth Distance (km) Brightness Sun altitude
Exits shadow 23:29:06 32° 96° (E) 2,030 3.9 -27.7°
Drops below altitude 10° 23:33:50 10° 130° (SE) 3,103 5.2 -28.2°
Sets 23:36:37 0° 138° (SE) 3,976 5.9 -28.5°
